Weather History for KWLD - March, 2014

Change the Weather History Date:

Thursday, March 27, 2014

  Actual Average Record
Temperature  
Mean Temperature 62 °F -  
Max Temperature 77 °F 61 °F 79 °F (2012)
Min Temperature 46 °F 39 °F 30 °F (2009)
Degree Days  
Heating Degree Days 4    
Growing Degree Days 12 (Base 50)    
Moisture  
Dew Point 47 °F    
Average Humidity 64    
Maximum Humidity 84    
Minimum Humidity 24    
Precipitation  
Precipitation 0.00 in - - ()
Sea Level Pressure  
Sea Level Pressure 29.57 in    
Wind  
Wind Speed 24 mph (SW)    
Max Wind Speed 34 mph    
Max Gust Speed 47 mph    
Visibility 10 miles    
Events      
Averages and records for this station are not official NWS values.
T = Trace of Precipitation, MM = Missing Value Source: NWS Daily Summary

Daily Weather History Graph

Daily Weather History Graph

Search for Another Location

Airport or City:

Trip Planner

Search our weather history database for the weather conditions in past years. The results will help you decide how hot, cold, wet, or windy it might be!

Date:

Astronomy

Mar. 27, 2014 Rise Set
Actual Time 7:21 AM CDT 7:46 PM CDT
Civil Twilight 6:55 AM CDT 8:12 PM CDT
Nautical Twilight 6:24 AM CDT 8:43 PM CDT
Astronomical Twilight 5:53 AM CDT 9:14 PM CDT
Moon 5:08 AM CDT (3/27) 4:39 PM CDT (3/27)
Length of Visible Light 13h 17m
Length of Day
12h 25m
Waning Crescent, 13% of the Moon is Illuminated
Mar 27
Waning Crescent
Mar 30
New
Apr 7
First Quarter
Apr 15
Full
Apr 22
Last Quarter

Hourly Weather History & Observations

Time (CDT) Temp. Windchill Dew Point Humidity Pressure Visibility Wind Dir Wind Speed Gust Speed Precip Events Conditions
12:54 AM 51.1 °F - 45.0 °F 80% 29.63 in 10.0 mi South 24.2 mph 35.7 mph N/A   Overcast
1:54 AM 52.0 °F - 46.0 °F 80% 29.61 in 10.0 mi South 27.6 mph 34.5 mph N/A   Overcast
2:54 AM 53.1 °F - 48.0 °F 83% 29.60 in 10.0 mi South 18.4 mph 33.4 mph N/A   Overcast
3:54 AM 55.0 °F - 50.0 °F 83% 29.56 in 10.0 mi South 18.4 mph 32.2 mph N/A   Overcast
4:54 AM 57.0 °F - 51.1 °F 81% 29.52 in 10.0 mi South 23.0 mph 34.5 mph N/A   Overcast
5:54 AM 57.9 °F - 52.0 °F 81% 29.51 in 10.0 mi South 29.9 mph 42.6 mph N/A   Overcast
6:54 AM 57.9 °F - 53.1 °F 84% 29.52 in 10.0 mi South 25.3 mph 43.7 mph N/A   Overcast
7:54 AM 57.9 °F - 53.1 °F 84% 29.52 in 10.0 mi South 24.2 mph 38.0 mph N/A   Overcast
8:33 AM 59.0 °F - 54.0 °F 83% 29.51 in 10.0 mi South 25.3 mph 40.3 mph N/A   Scattered Clouds
8:54 AM 60.1 °F - 54.0 °F 80% 29.50 in 10.0 mi South 24.2 mph 36.8 mph N/A   Scattered Clouds
9:09 AM 60.1 °F - 54.0 °F 80% 29.50 in 10.0 mi South 25.3 mph 41.4 mph N/A   Mostly Cloudy
9:54 AM 62.1 °F - 55.0 °F 78% 29.49 in 10.0 mi South 23.0 mph 41.4 mph N/A   Mostly Cloudy
10:09 AM 64.9 °F - 55.9 °F 73% 29.50 in 10.0 mi SSW 27.6 mph 42.6 mph N/A   Mostly Cloudy
10:49 AM 64.4 °F - 53.6 °F 68% 29.49 in 10.0 mi SSW 31.1 mph 47.2 mph N/A   Mostly Cloudy
10:54 AM 66.9 °F - 55.0 °F 66% 29.47 in 10.0 mi SSW 34.5 mph 44.9 mph N/A   Mostly Cloudy
11:09 AM 69.1 °F - 55.9 °F 63% 29.47 in 10.0 mi SSW 26.5 mph 46.0 mph N/A   Mostly Cloudy
11:54 AM 69.1 °F - 54.0 °F 58% 29.47 in 10.0 mi SW 33.4 mph 43.7 mph N/A   Mostly Cloudy
12:54 PM 73.9 °F - 43.0 °F 33% 29.46 in 10.0 mi WSW 32.2 mph 41.4 mph N/A   Partly Cloudy
1:54 PM 75.9 °F - 37.0 °F 24% 29.48 in 10.0 mi West 27.6 mph 33.4 mph N/A   Partly Cloudy
2:54 PM 75.0 °F - 43.0 °F 32% 29.50 in 10.0 mi NW 25.3 mph 33.4 mph N/A   Clear
3:54 PM 72.0 °F - 46.9 °F 41% 29.53 in 10.0 mi WNW 20.7 mph 29.9 mph N/A   Clear
4:54 PM 71.1 °F - 44.1 °F 38% 29.57 in 10.0 mi NW 20.7 mph 28.8 mph N/A   Clear
5:54 PM 69.1 °F - 42.1 °F 38% 29.61 in 10.0 mi WNW 20.7 mph 27.6 mph N/A   Clear
6:54 PM 64.9 °F - 41.0 °F 42% 29.66 in 10.0 mi NNW 18.4 mph 26.5 mph N/A   Clear
7:54 PM 57.0 °F - 39.0 °F 51% 29.71 in 10.0 mi NNW 11.5 mph - N/A   Clear
8:54 PM 54.0 °F - 39.0 °F 57% 29.75 in 10.0 mi North 13.8 mph - N/A   Clear
9:54 PM 52.0 °F - 37.0 °F 57% 29.79 in 10.0 mi North 18.4 mph - N/A   Clear
10:54 PM 48.0 °F - 35.1 °F 61% 29.81 in 10.0 mi NNE 13.8 mph - N/A   Clear
11:54 PM 46.0 °F 40.2 °F 34.0 °F 63% 29.87 in 10.0 mi North 12.7 mph - N/A   Mostly Cloudy